BEL1VG EBBR-HEGN

Flight info

Callsign BEL1VG
Flight time N/A
Altitude 35000
Route PITES DCT BANUX DCT VEKIR DCT RADIZ DCT ABISO DCT ZARVE DCT KOTOR DCT NIVES DCT MONID DCT EMKES DCT XELMI DCT AKIKA DCT ENFAR DCT TALAS UN130 MES UL609 RDS/N0456F370 UL995 VANZA DCT RASDA A16 CVO L315 SOKOT SOKOT1A
Aircraft A320/M-SDE3FGHIRWY/LB1

Departure

Time 2026-05-04 12:44
Airport Brussels Airport (EBBR)

Arrival

Time N/A
Airport Hurghada International Airport (HEGN)
Time Latitude Longitude Altitude Speed Heading
2026-05-04 12:26 50.89231 4.48342 143 ft 0 kts 159°
2026-05-04 12:39 50.89211 4.48354 142 ft 9 kts 158°
2026-05-04 12:39 50.89188 4.48440 140 ft 10 kts 71°
2026-05-04 12:39 50.89209 4.48532 141 ft 7 kts 70°
2026-05-04 12:40 50.89220 4.48585 142 ft 3 kts 70°
2026-05-04 12:40 50.89238 4.48663 143 ft 10 kts 70°
2026-05-04 12:40 50.89259 4.48761 142 ft 11 kts 71°
2026-05-04 12:40 50.89287 4.48886 141 ft 12 kts 71°
2026-05-04 12:41 50.89310 4.48991 141 ft 9 kts 70°
2026-05-04 12:41 50.89292 4.49061 140 ft 8 kts 166°
2026-05-04 12:41 50.89231 4.49046 139 ft 12 kts 192°
2026-05-04 12:41 50.89134 4.49013 140 ft 15 kts 192°
2026-05-04 12:42 50.89044 4.48977 144 ft 11 kts 194°
2026-05-04 12:42 50.88976 4.48948 147 ft 11 kts 195°
2026-05-04 12:42 50.88922 4.48925 150 ft 8 kts 195°
2026-05-04 12:42 50.88866 4.48902 154 ft 6 kts 194°
2026-05-04 12:43 50.88799 4.48880 158 ft 18 kts 186°
2026-05-04 12:43 50.88734 4.49004 159 ft 15 kts 105°
2026-05-04 12:43 50.88759 4.49164 155 ft 18 kts 30°
2026-05-04 12:43 50.88890 4.49221 154 ft 31 kts 14°
2026-05-04 12:44 50.89350 4.49407 142 ft 101 kts 14°
2026-05-04 12:44 50.90214 4.49761 136 ft 152 kts 14°
2026-05-04 12:44 50.91349 4.50219 367 ft 176 kts 14°
2026-05-04 12:44 50.92511 4.50818 1018 ft 176 kts 30°
2026-05-04 12:45 50.93529 4.51873 1701 ft 175 kts 44°
2026-05-04 12:45 50.94120 4.53592 2137 ft 185 kts 82°
2026-05-04 12:45 50.93915 4.55677 2360 ft 204 kts 120°
2026-05-04 12:45 50.92900 4.57365 2547 ft 225 kts 142°
2026-05-04 12:46 50.91630 4.58977 2786 ft 249 kts 142°
2026-05-04 12:46 50.90224 4.60749 3297 ft 263 kts 143°
2026-05-04 12:46 50.88630 4.62154 4047 ft 264 kts 166°
2026-05-04 12:46 50.86816 4.62535 4857 ft 264 kts 176°
2026-05-04 12:47 50.84977 4.62772 5628 ft 266 kts 175°
2026-05-04 12:47 50.83117 4.63025 6387 ft 269 kts 175°
2026-05-04 12:47 50.81239 4.63287 7123 ft 272 kts 175°
2026-05-04 12:47 50.79346 4.63553 7833 ft 275 kts 175°
2026-05-04 12:48 50.77418 4.63821 8546 ft 279 kts 175°
2026-05-04 12:48 50.75475 4.64087 9231 ft 282 kts 175°
2026-05-04 12:48 50.73563 4.64693 9903 ft 286 kts 158°
2026-05-04 12:48 50.71860 4.66294 10569 ft 289 kts 139°
2026-05-04 12:49 50.70554 4.68795 10953 ft 307 kts 119°
2026-05-04 12:49 50.69801 4.72069 11115 ft 330 kts 107°
2026-05-04 12:49 50.69143 4.75691 11230 ft 352 kts 108°
2026-05-04 12:49 50.68459 4.79421 11412 ft 368 kts 108°
2026-05-04 12:50 50.67736 4.83333 11884 ft 374 kts 108°
2026-05-04 12:50 50.66971 4.87281 12459 ft 378 kts 112°
2026-05-04 12:50 50.65839 4.91023 13047 ft 379 kts 123°
2026-05-04 12:50 50.64287 4.94353 13623 ft 380 kts 134°
2026-05-04 12:51 50.62436 4.97283 14198 ft 382 kts 137°
2026-05-04 12:51 50.60530 5.00221 14757 ft 385 kts 137°
2026-05-04 12:51 50.58610 5.03194 15316 ft 388 kts 137°
2026-05-04 12:51 50.56682 5.06179 15848 ft 391 kts 137°
2026-05-04 12:52 50.54743 5.09178 16363 ft 393 kts 137°
2026-05-04 12:52 50.52776 5.12217 16854 ft 396 kts 137°
2026-05-04 12:52 50.50795 5.15278 17350 ft 399 kts 137°
2026-05-04 12:52 50.48813 5.18339 17819 ft 401 kts 137°
2026-05-04 12:53 50.46811 5.21423 18262 ft 404 kts 138°
2026-05-04 12:53 50.44819 5.24482 18700 ft 407 kts 138°
2026-05-04 12:53 50.42783 5.27599 19139 ft 410 kts 138°
2026-05-04 12:53 50.40735 5.30730 19550 ft 412 kts 138°
2026-05-04 12:54 50.38675 5.33885 19963 ft 415 kts 139°
2026-05-04 12:54 50.36608 5.37048 20359 ft 417 kts 139°
2026-05-04 12:54 50.34526 5.40232 20740 ft 420 kts 139°
2026-05-04 12:54 50.32427 5.43437 21113 ft 422 kts 139°
2026-05-04 12:55 50.30313 5.46656 21465 ft 424 kts 139°
2026-05-04 12:55 50.28186 5.49883 21819 ft 426 kts 139°
2026-05-04 12:55 50.26079 5.53072 22155 ft 428 kts 140°
2026-05-04 12:55 50.23922 5.56329 22474 ft 430 kts 140°
2026-05-04 12:56 50.21766 5.59589 22794 ft 432 kts 140°
2026-05-04 12:56 50.19601 5.62868 23103 ft 434 kts 140°
2026-05-04 12:56 50.17428 5.66165 23410 ft 436 kts 140°
2026-05-04 12:56 50.15247 5.69467 23720 ft 438 kts 140°
2026-05-04 12:57 50.13052 5.72781 23991 ft 440 kts 140°
2026-05-04 12:57 50.10848 5.76089 24259 ft 441 kts 140°
2026-05-04 12:57 50.08629 5.79413 24532 ft 443 kts 140°
2026-05-04 12:57 50.06401 5.82753 24791 ft 445 kts 140°
2026-05-04 12:58 50.04189 5.86061 25038 ft 446 kts 140°
2026-05-04 12:58 50.01920 5.89453 25300 ft 447 kts 141°
2026-05-04 12:58 49.99701 5.92771 25530 ft 449 kts 140°
2026-05-04 12:58 49.97418 5.96188 25764 ft 450 kts 141°
2026-05-04 12:59 49.95185 5.99522 25991 ft 451 kts 141°
2026-05-04 12:59 49.92916 6.02896 26180 ft 452 kts 141°
2026-05-04 12:59 49.90635 6.06276 26380 ft 453 kts 141°
2026-05-04 12:59 49.88346 6.09674 26562 ft 454 kts 140°
2026-05-04 13:00 49.86248 6.13411 26719 ft 462 kts 131°
2026-05-04 13:00 49.84530 6.17662 26894 ft 470 kts 122°
2026-05-04 13:00 49.83043 6.22113 27063 ft 471 kts 122°
2026-05-04 13:00 49.81523 6.26629 27276 ft 471 kts 122°
2026-05-04 13:01 49.80003 6.31109 27525 ft 470 kts 123°
2026-05-04 13:01 49.78473 6.35572 27751 ft 469 kts 123°
2026-05-04 13:01 49.76940 6.40029 27976 ft 469 kts 123°
2026-05-04 13:01 49.75410 6.44483 28202 ft 469 kts 123°
2026-05-04 13:02 49.73876 6.48953 28446 ft 468 kts 123°
2026-05-04 13:02 49.72370 6.53406 28699 ft 469 kts 122°
2026-05-04 13:02 49.70969 6.57980 28925 ft 470 kts 119°
2026-05-04 13:02 49.69679 6.62621 29157 ft 471 kts 117°
2026-05-04 13:03 49.68449 6.67314 29371 ft 471 kts 117°
2026-05-04 13:03 49.67228 6.72036 29561 ft 471 kts 117°
2026-05-04 13:03 49.65992 6.76722 29776 ft 470 kts 117°
2026-05-04 13:03 49.64729 6.81370 30009 ft 469 kts 118°
2026-05-04 13:04 49.63457 6.85933 30218 ft 469 kts 118°
2026-05-04 13:04 49.62146 6.90561 30441 ft 468 kts 118°
2026-05-04 13:04 49.60836 6.95170 30662 ft 468 kts 118°
2026-05-04 13:04 49.59530 6.99770 30858 ft 468 kts 118°
2026-05-04 13:05 49.58239 7.04320 31075 ft 468 kts 118°
2026-05-04 13:05 49.56938 7.08911 31282 ft 467 kts 118°
2026-05-04 13:05 49.55637 7.13504 31483 ft 467 kts 118°
2026-05-04 13:05 49.54333 7.18103 31667 ft 467 kts 118°
2026-05-04 13:06 49.53031 7.22691 31867 ft 467 kts 118°
2026-05-04 13:06 49.51729 7.27271 32069 ft 467 kts 118°
2026-05-04 13:06 49.50428 7.31843 32259 ft 467 kts 118°
2026-05-04 13:06 49.49123 7.36415 32454 ft 466 kts 118°
2026-05-04 13:07 49.47819 7.40974 32648 ft 466 kts 118°
2026-05-04 13:07 49.46508 7.45538 32822 ft 466 kts 118°
2026-05-04 13:07 49.45196 7.50094 33001 ft 466 kts 118°
2026-05-04 13:07 49.43882 7.54653 33192 ft 466 kts 118°
2026-05-04 13:08 49.42570 7.59198 33375 ft 465 kts 118°
2026-05-04 13:08 49.41269 7.63697 33557 ft 465 kts 118°
2026-05-04 13:08 49.39957 7.68227 33735 ft 465 kts 118°
2026-05-04 13:08 49.38637 7.72776 33910 ft 465 kts 118°
2026-05-04 13:09 49.37315 7.77326 34087 ft 465 kts 118°
2026-05-04 13:09 49.35997 7.81861 34267 ft 464 kts 118°
2026-05-04 13:09 49.35123 7.84862 34390 ft 464 kts 118°
2026-05-04 13:09 49.33361 7.90908 34628 ft 464 kts 118°
2026-05-04 13:10 49.32485 7.93908 34749 ft 464 kts 118°
2026-05-04 13:10 49.30734 7.99876 34959 ft 463 kts 118°
2026-05-04 13:10 49.29838 8.02915 35002 ft 464 kts 118°
2026-05-04 13:11 49.27170 8.11939 35009 ft 465 kts 118°
2026-05-04 13:11 49.24499 8.20974 35003 ft 465 kts 118°
2026-05-04 13:12 49.21845 8.29937 35010 ft 465 kts 118°
2026-05-04 13:12 49.19159 8.38957 34998 ft 465 kts 118°
2026-05-04 13:13 49.16455 8.47975 34997 ft 465 kts 118°
2026-05-04 13:13 49.13775 8.56898 35004 ft 465 kts 118°
2026-05-04 13:14 49.11080 8.65852 35006 ft 465 kts 118°
2026-05-04 13:14 49.08377 8.74812 35001 ft 464 kts 119°
2026-05-04 13:15 49.05656 8.83764 34998 ft 464 kts 119°
2026-05-04 13:15 49.02922 8.92689 34993 ft 464 kts 119°
2026-05-04 13:16 49.00204 9.01564 34991 ft 464 kts 119°
2026-05-04 13:16 48.97466 9.10485 35004 ft 464 kts 119°
2026-05-04 13:17 48.94724 9.19399 34998 ft 464 kts 119°
2026-05-04 13:17 48.91970 9.28296 35002 ft 464 kts 119°
2026-05-04 13:18 48.89203 9.37175 35001 ft 464 kts 119°
2026-05-04 13:18 48.86430 9.46046 35001 ft 464 kts 119°
2026-05-04 13:19 48.83678 9.54854 35001 ft 464 kts 119°
2026-05-04 13:19 48.80902 9.63721 34997 ft 464 kts 119°
2026-05-04 13:20 48.78121 9.72534 35000 ft 464 kts 119°
2026-05-04 13:20 48.75339 9.81304 35000 ft 464 kts 119°
2026-05-04 13:21 48.72529 9.90122 35005 ft 464 kts 122°
2026-05-04 13:21 48.69254 9.98488 34997 ft 461 kts 125°
2026-05-04 13:22 48.65934 10.06811 35003 ft 461 kts 124°
2026-05-04 13:22 48.62616 10.15132 34992 ft 461 kts 124°
2026-05-04 13:23 48.59292 10.23440 35004 ft 461 kts 125°
2026-05-04 13:23 48.55972 10.31683 35004 ft 462 kts 125°
2026-05-04 13:24 48.52627 10.39969 34994 ft 462 kts 125°
2026-05-04 13:24 48.49275 10.48256 34994 ft 462 kts 125°
2026-05-04 13:25 48.44231 10.60660 34984 ft 462 kts 125°
2026-05-04 13:25 48.40890 10.68856 34982 ft 462 kts 125°
2026-05-04 13:26 48.37516 10.77110 34980 ft 462 kts 125°
2026-05-04 13:26 48.34130 10.85348 34976 ft 462 kts 125°
2026-05-04 13:27 48.30742 10.93565 34973 ft 463 kts 125°
2026-05-04 13:27 48.27346 11.01779 34973 ft 463 kts 125°
2026-05-04 13:28 48.23964 11.09933 34974 ft 463 kts 125°
2026-05-04 13:28 48.20554 11.18154 34973 ft 463 kts 125°
2026-05-04 13:29 48.17135 11.26362 34974 ft 464 kts 125°
2026-05-04 13:29 48.13712 11.34547 34971 ft 464 kts 125°
2026-05-04 13:30 48.10278 11.42728 34970 ft 465 kts 125°
2026-05-04 13:30 48.06832 11.50921 34968 ft 465 kts 125°
2026-05-04 13:31 48.03379 11.59107 34969 ft 466 kts 125°
2026-05-04 13:31 47.99937 11.67244 34971 ft 466 kts 125°
2026-05-04 13:32 47.96462 11.75419 34966 ft 466 kts 125°
2026-05-04 13:32 47.92980 11.83599 34966 ft 466 kts 125°
2026-05-04 13:33 47.89505 11.91742 34965 ft 467 kts 125°
2026-05-04 13:33 47.86009 11.99897 34967 ft 467 kts 125°
2026-05-04 13:34 47.82510 12.08049 34966 ft 467 kts 125°
2026-05-04 13:34 47.79004 12.16181 34965 ft 467 kts 125°
2026-05-04 13:35 47.73749 12.28323 34969 ft 467 kts 125°
2026-05-04 13:36 47.70231 12.36439 34970 ft 466 kts 125°
2026-05-04 13:36 47.66714 12.44519 34972 ft 466 kts 125°
2026-05-04 13:37 47.63130 12.52544 34969 ft 465 kts 130°
2026-05-04 13:37 47.58640 12.59350 34968 ft 461 kts 140°
2026-05-04 13:38 47.53925 12.65802 34969 ft 462 kts 140°
2026-05-04 13:38 47.49209 12.72280 34971 ft 462 kts 139°
2026-05-04 13:39 47.44518 12.78708 34974 ft 463 kts 140°
2026-05-04 13:39 47.39783 12.85165 34975 ft 463 kts 140°
2026-05-04 13:40 47.35050 12.91608 34980 ft 463 kts 140°
2026-05-04 13:40 47.30301 12.98051 34985 ft 464 kts 140°
2026-05-04 13:41 47.25544 13.04481 35000 ft 464 kts 140°
2026-05-04 13:41 47.20810 13.10866 35004 ft 464 kts 140°
2026-05-04 13:42 47.13647 13.20493 34998 ft 465 kts 140°
2026-05-04 13:42 47.08874 13.26902 35005 ft 465 kts 139°
2026-05-04 13:43 47.04094 13.33309 35001 ft 465 kts 139°
2026-05-04 13:43 46.99307 13.39704 34998 ft 465 kts 140°
2026-05-04 13:44 46.94536 13.46042 35006 ft 465 kts 140°
2026-05-04 13:44 46.89742 13.52386 35000 ft 466 kts 140°
2026-05-04 13:45 46.84935 13.58758 35009 ft 466 kts 139°
2026-05-04 13:45 46.80163 13.65081 35014 ft 466 kts 139°
2026-05-04 13:46 46.75353 13.71428 35021 ft 466 kts 140°
2026-05-04 13:46 46.70517 13.77773 35019 ft 466 kts 140°
2026-05-04 13:47 46.65714 13.84056 35022 ft 466 kts 140°
2026-05-04 13:47 46.60885 13.90364 35025 ft 466 kts 140°
2026-05-04 13:48 46.56055 13.96675 35029 ft 466 kts 139°
2026-05-04 13:48 46.51225 14.02971 35032 ft 466 kts 139°
2026-05-04 13:49 46.47195 14.08212 35028 ft 467 kts 139°
2026-05-04 13:49 46.42348 14.14483 35026 ft 467 kts 139°
2026-05-04 13:50 46.37488 14.20750 35032 ft 468 kts 140°
2026-05-04 13:50 46.32611 14.27021 35040 ft 468 kts 140°
2026-05-04 13:51 46.27749 14.33267 35049 ft 468 kts 139°
2026-05-04 13:51 46.23280 14.40041 35056 ft 469 kts 132°
2026-05-04 13:52 46.16775 14.50623 35061 ft 469 kts 133°
2026-05-04 13:53 46.12425 14.57644 35070 ft 469 kts 133°
2026-05-04 13:53 46.08075 14.64669 35082 ft 469 kts 132°
2026-05-04 13:54 46.01554 14.75189 35078 ft 469 kts 133°
2026-05-04 13:55 45.95009 14.85663 35061 ft 469 kts 132°
2026-05-04 13:55 45.88452 14.96068 35054 ft 469 kts 134°
2026-05-04 13:56 45.83837 15.02699 35051 ft 469 kts 137°
2026-05-04 13:57 45.76703 15.12339 35045 ft 469 kts 137°
2026-05-04 13:58 45.67329 15.25303 35039 ft 470 kts 136°
2026-05-04 13:58 45.60269 15.35064 35039 ft 470 kts 136°
2026-05-04 13:59 45.55547 15.41548 35033 ft 470 kts 136°
2026-05-04 14:00 45.48463 15.51286 35035 ft 471 kts 136°
2026-05-04 14:00 45.41468 15.61048 35039 ft 471 kts 133°
2026-05-04 14:01 45.37039 15.67938 35042 ft 471 kts 131°
2026-05-04 14:02 45.30481 15.78353 35044 ft 471 kts 132°
2026-05-04 14:02 45.26044 15.85195 35042 ft 471 kts 133°
2026-05-04 14:03 45.21586 15.91987 35044 ft 472 kts 132°
2026-05-04 14:03 45.17133 15.98883 35041 ft 473 kts 132°
2026-05-04 14:04 45.10508 16.09262 35041 ft 473 kts 131°
2026-05-04 14:04 45.06072 16.16158 35045 ft 474 kts 131°
2026-05-04 14:05 44.99401 16.26470 35050 ft 475 kts 131°
2026-05-04 14:06 44.94895 16.33321 35052 ft 476 kts 133°
2026-05-04 14:06 44.90174 16.39896 35054 ft 476 kts 136°
2026-05-04 14:07 44.85362 16.46347 35051 ft 477 kts 136°
2026-05-04 14:07 44.80584 16.52831 35051 ft 477 kts 135°
2026-05-04 14:08 44.75858 16.59333 35049 ft 478 kts 135°
2026-05-04 14:08 44.71084 16.65880 35046 ft 478 kts 135°
2026-05-04 14:09 44.63915 16.75656 35053 ft 478 kts 135°
2026-05-04 14:10 44.56743 16.85405 35051 ft 479 kts 135°
2026-05-04 14:10 44.51971 16.91863 35050 ft 479 kts 135°
2026-05-04 14:11 44.47173 16.98341 35054 ft 479 kts 135°
2026-05-04 14:11 44.39970 17.08062 35058 ft 479 kts 135°
2026-05-04 14:12 44.35167 17.14526 35059 ft 480 kts 135°
2026-05-04 14:13 44.27917 17.24216 35063 ft 480 kts 135°
2026-05-04 14:13 44.23099 17.30650 35059 ft 480 kts 135°
2026-05-04 14:14 44.18294 17.37051 35069 ft 480 kts 135°
2026-05-04 14:14 44.11042 17.46686 35063 ft 480 kts 135°
2026-05-04 14:15 44.01359 17.59500 35065 ft 480 kts 135°
2026-05-04 14:16 43.94096 17.69062 35071 ft 481 kts 135°
2026-05-04 14:17 43.86794 17.78645 35076 ft 481 kts 135°
2026-05-04 14:18 43.79505 17.88202 35071 ft 481 kts 134°
2026-05-04 14:19 43.69984 18.01147 35076 ft 481 kts 134°
2026-05-04 14:19 43.65206 18.07642 35072 ft 482 kts 134°
2026-05-04 14:20 43.60402 18.14101 35079 ft 482 kts 134°
2026-05-04 14:20 43.55621 18.20611 35080 ft 482 kts 133°
2026-05-04 14:21 43.48618 18.30507 35076 ft 482 kts 132°
2026-05-04 14:21 43.43907 18.37121 35078 ft 482 kts 133°
2026-05-04 14:22 43.39172 18.43698 35070 ft 483 kts 133°
2026-05-04 14:22 43.34457 18.50231 35103 ft 483 kts 133°
2026-05-04 14:23 43.27340 18.60090 35079 ft 485 kts 133°
2026-05-04 14:24 43.22577 18.66661 35080 ft 485 kts 133°
2026-05-04 14:24 43.17810 18.73221 35097 ft 486 kts 133°
2026-05-04 14:25 43.13837 18.78675 35097 ft 486 kts 133°
2026-05-04 14:25 43.05881 18.89592 35088 ft 487 kts 133°
2026-05-04 14:26 43.01888 18.95035 35082 ft 487 kts 133°
2026-05-04 14:26 42.97072 19.01582 35083 ft 488 kts 133°
2026-05-04 14:27 42.92253 19.08135 35095 ft 488 kts 133°
2026-05-04 14:27 42.87473 19.14637 35086 ft 488 kts 133°
2026-05-04 14:28 42.82648 19.21171 35085 ft 489 kts 133°
2026-05-04 14:28 42.77809 19.27686 35086 ft 489 kts 133°
2026-05-04 14:29 42.68116 19.40727 35077 ft 489 kts 133°
2026-05-04 14:30 42.63282 19.47203 35075 ft 490 kts 133°
2026-05-04 14:31 42.55992 19.56965 35063 ft 491 kts 133°
2026-05-04 14:32 42.46039 19.69661 35067 ft 493 kts 136°
2026-05-04 14:32 42.40894 19.75844 35076 ft 493 kts 136°
2026-05-04 14:33 42.35785 19.82064 35077 ft 494 kts 135°
2026-05-04 14:33 42.30731 19.88275 35077 ft 494 kts 135°
2026-05-04 14:34 42.25638 19.94528 35085 ft 495 kts 135°
2026-05-04 14:34 42.20533 20.00771 35080 ft 495 kts 135°
2026-05-04 14:35 42.15408 20.06999 35087 ft 495 kts 135°
2026-05-04 14:35 42.10286 20.13203 35097 ft 496 kts 135°
2026-05-04 14:36 42.05146 20.19427 35097 ft 496 kts 135°
2026-05-04 14:36 42.00017 20.25627 35101 ft 495 kts 135°
2026-05-04 14:37 41.94912 20.31793 35101 ft 495 kts 135°
2026-05-04 14:37 41.89774 20.37976 35103 ft 496 kts 136°
2026-05-04 14:38 41.84626 20.44140 35106 ft 495 kts 136°
2026-05-04 14:38 41.79488 20.50283 35109 ft 496 kts 135°
2026-05-04 14:39 41.75016 20.57196 35105 ft 487 kts 119°
2026-05-04 14:39 41.71325 20.64793 35115 ft 487 kts 119°
2026-05-04 14:40 41.65736 20.76114 35124 ft 486 kts 120°
2026-05-04 14:40 41.61999 20.83668 35127 ft 486 kts 120°
2026-05-04 14:41 41.58268 20.91200 35131 ft 485 kts 120°
2026-05-04 14:42 41.50840 21.06183 35138 ft 483 kts 120°
2026-05-04 14:42 41.47123 21.13634 35146 ft 481 kts 120°
2026-05-04 14:43 41.43428 21.21024 35148 ft 480 kts 120°
2026-05-04 14:43 41.39715 21.28423 35143 ft 479 kts 120°
2026-05-04 14:44 41.35999 21.35806 35146 ft 479 kts 120°
2026-05-04 14:44 41.32294 21.43165 35134 ft 478 kts 120°
2026-05-04 14:45 41.28598 21.50502 35131 ft 477 kts 120°
2026-05-04 14:45 41.24926 21.57783 35121 ft 477 kts 120°
2026-05-04 14:46 41.21218 21.65103 35121 ft 477 kts 120°
2026-05-04 14:46 41.17509 21.72400 35122 ft 476 kts 121°
2026-05-04 14:47 41.13790 21.79687 35122 ft 477 kts 121°
2026-05-04 14:47 41.10065 21.86964 35119 ft 477 kts 121°
2026-05-04 14:48 41.06311 21.94232 35115 ft 478 kts 122°
2026-05-04 14:48 41.02317 22.01325 35112 ft 480 kts 124°
2026-05-04 14:49 40.98264 22.08253 35130 ft 478 kts 125°
2026-05-04 14:49 40.94223 22.15235 35138 ft 476 kts 124°
2026-05-04 14:50 40.90238 22.22219 35137 ft 475 kts 124°
2026-05-04 14:50 40.86262 22.29205 35127 ft 475 kts 124°
2026-05-04 14:51 40.82272 22.36163 35124 ft 475 kts 124°
2026-05-04 14:51 40.78285 22.43072 35115 ft 475 kts 124°
2026-05-04 14:52 40.74277 22.49999 35113 ft 475 kts 124°
2026-05-04 14:52 40.70268 22.56934 35112 ft 475 kts 125°
2026-05-04 14:53 40.66260 22.63860 35113 ft 475 kts 125°
2026-05-04 14:53 40.62253 22.70756 35112 ft 474 kts 125°
2026-05-04 14:54 40.58258 22.77619 35111 ft 474 kts 125°
2026-05-04 14:54 40.54233 22.84513 35110 ft 474 kts 125°
2026-05-04 14:55 40.50227 22.91350 35115 ft 473 kts 125°
2026-05-04 14:55 40.46208 22.98197 35119 ft 473 kts 127°
2026-05-04 14:56 40.41741 23.04565 35120 ft 473 kts 131°
2026-05-04 14:56 40.37213 23.10823 35126 ft 473 kts 132°
2026-05-04 14:57 40.32686 23.17074 35128 ft 472 kts 132°
2026-05-04 14:57 40.28198 23.23258 35129 ft 470 kts 132°
2026-05-04 14:58 40.23680 23.29458 35125 ft 469 kts 132°
2026-05-04 14:58 40.19935 23.34599 35121 ft 469 kts 132°
2026-05-04 14:59 40.14663 23.41822 35124 ft 468 kts 132°
2026-05-04 15:00 40.07945 23.50988 35128 ft 466 kts 133°
2026-05-04 15:00 40.03459 23.57105 35128 ft 466 kts 133°
2026-05-04 15:01 39.96723 23.66258 35119 ft 465 kts 133°
2026-05-04 15:01 39.92233 23.72334 35113 ft 465 kts 133°
2026-05-04 15:02 39.87736 23.78417 35121 ft 465 kts 133°
2026-05-04 15:02 39.83272 23.84438 35125 ft 465 kts 133°
2026-05-04 15:03 39.78777 23.90499 35128 ft 465 kts 133°
2026-05-04 15:03 39.74284 23.96550 35128 ft 465 kts 133°
2026-05-04 15:04 39.69789 24.02585 35132 ft 464 kts 133°
2026-05-04 15:04 39.65292 24.08605 35131 ft 464 kts 133°
2026-05-04 15:05 39.61547 24.13590 35129 ft 464 kts 133°
2026-05-04 15:05 39.56298 24.20569 35117 ft 464 kts 133°
2026-05-04 15:06 39.52529 24.25594 35111 ft 464 kts 133°
2026-05-04 15:07 39.45783 24.34577 35110 ft 466 kts 133°
2026-05-04 15:07 39.41249 24.40582 35108 ft 466 kts 133°
2026-05-04 15:08 39.36711 24.46568 35101 ft 466 kts 133°
2026-05-04 15:08 39.32168 24.52574 35091 ft 468 kts 133°
2026-05-04 15:09 39.27637 24.58635 35097 ft 468 kts 133°
2026-05-04 15:09 39.23115 24.64698 35095 ft 469 kts 133°
2026-05-04 15:10 39.16324 24.73751 35076 ft 470 kts 132°
2026-05-04 15:11 39.09471 24.82844 35085 ft 471 kts 133°
2026-05-04 15:11 39.04859 24.88855 35092 ft 472 kts 133°
2026-05-04 15:12 39.00218 24.94835 35092 ft 472 kts 133°
2026-05-04 15:12 38.95607 25.00783 35089 ft 472 kts 133°
2026-05-04 15:13 38.90967 25.06771 35079 ft 473 kts 133°
2026-05-04 15:13 38.86324 25.12773 35089 ft 473 kts 133°
2026-05-04 15:14 38.81666 25.18772 35085 ft 473 kts 133°
2026-05-04 15:14 38.77008 25.24748 35083 ft 474 kts 133°
2026-05-04 15:15 38.72370 25.30686 35081 ft 474 kts 133°
2026-05-04 15:15 38.67699 25.36662 35082 ft 475 kts 133°
2026-05-04 15:16 38.60673 25.45623 35084 ft 475 kts 133°
2026-05-04 15:17 38.53630 25.54577 35084 ft 476 kts 133°
2026-05-04 15:17 38.46581 25.63515 35087 ft 476 kts 133°
2026-05-04 15:18 38.41896 25.69439 35085 ft 476 kts 134°
2026-05-04 15:19 38.34826 25.78372 35079 ft 477 kts 134°
2026-05-04 15:19 38.27789 25.87284 35080 ft 477 kts 134°
2026-05-04 15:20 38.23013 25.93179 35077 ft 478 kts 136°
2026-05-04 15:20 38.17994 25.98757 35079 ft 479 kts 139°
2026-05-04 15:21 38.12893 26.04220 35076 ft 479 kts 138°
2026-05-04 15:22 38.05349 26.12487 35071 ft 479 kts 137°
2026-05-04 15:22 37.97815 26.20845 35080 ft 480 kts 137°
2026-05-04 15:23 37.92778 26.26396 35086 ft 480 kts 138°
2026-05-04 15:23 37.87725 26.31936 35087 ft 480 kts 138°
2026-05-04 15:24 37.77597 26.42978 35074 ft 480 kts 138°
2026-05-04 15:25 37.72526 26.48491 35069 ft 481 kts 138°
2026-05-04 15:26 37.64935 26.56730 35063 ft 482 kts 139°
2026-05-04 15:26 37.57301 26.65020 35059 ft 483 kts 139°
2026-05-04 15:27 37.49649 26.73304 35054 ft 484 kts 139°
2026-05-04 15:28 37.42001 26.81555 35056 ft 485 kts 139°
2026-05-04 15:29 37.34467 26.90075 35060 ft 486 kts 135°
2026-05-04 15:30 37.17362 27.10745 35072 ft 488 kts 136°
2026-05-04 15:31 37.09956 27.19482 35058 ft 489 kts 136°
2026-05-04 15:32 36.97597 27.34102 35061 ft 489 kts 137°
2026-05-04 15:34 36.85194 27.48705 35057 ft 490 kts 137°
2026-05-04 15:34 36.77747 27.57430 35051 ft 490 kts 137°
2026-05-04 15:35 36.70304 27.66110 35042 ft 490 kts 137°
2026-05-04 15:36 36.62814 27.74834 35031 ft 491 kts 137°
2026-05-04 15:36 36.57812 27.80653 35023 ft 491 kts 138°
2026-05-04 15:37 36.52828 27.86437 35021 ft 491 kts 138°
2026-05-04 15:37 36.47831 27.92233 35008 ft 491 kts 138°
2026-05-04 15:38 36.42819 27.98040 35002 ft 492 kts 138°
2026-05-04 15:38 36.37786 28.03841 35011 ft 493 kts 138°
2026-05-04 15:39 36.32778 28.09662 35008 ft 492 kts 136°
2026-05-04 15:40 36.25776 28.18996 35009 ft 493 kts 132°
2026-05-04 15:40 36.21250 28.25307 34998 ft 492 kts 133°
2026-05-04 15:41 36.16609 28.31564 35011 ft 493 kts 134°
2026-05-04 15:41 36.11926 28.37758 35009 ft 493 kts 134°
2026-05-04 15:42 36.07233 28.43960 35006 ft 493 kts 134°
2026-05-04 15:42 36.02587 28.50117 35007 ft 493 kts 134°
2026-05-04 15:43 35.97905 28.56322 35005 ft 493 kts 134°
2026-05-04 15:43 35.93213 28.62527 34995 ft 495 kts 134°
2026-05-04 15:44 35.89267 28.67736 34998 ft 496 kts 135°
2026-05-04 15:44 35.84457 28.73768 34998 ft 496 kts 138°
2026-05-04 15:45 35.79413 28.79607 35000 ft 496 kts 139°
2026-05-04 15:45 35.74356 28.85402 35004 ft 497 kts 139°
2026-05-04 15:46 35.69338 28.91276 35000 ft 498 kts 138°
2026-05-04 15:46 35.64333 28.97200 35000 ft 498 kts 138°
2026-05-04 15:47 35.59323 29.03093 34991 ft 498 kts 139°
2026-05-04 15:47 35.54299 29.08960 34986 ft 498 kts 139°
2026-05-04 15:48 35.49269 29.14834 34982 ft 498 kts 139°
2026-05-04 15:48 35.41732 29.23616 34975 ft 499 kts 139°
2026-05-04 15:49 35.36688 29.29470 34972 ft 499 kts 140°
2026-05-04 15:49 35.31673 29.35275 34967 ft 499 kts 139°
2026-05-04 15:50 35.26627 29.41128 34965 ft 500 kts 140°
2026-05-04 15:50 35.21576 29.46970 34965 ft 500 kts 140°
2026-05-04 15:51 35.16507 29.52820 34960 ft 501 kts 140°
2026-05-04 15:51 35.11431 29.58691 34954 ft 501 kts 140°
2026-05-04 15:52 35.06389 29.64492 34950 ft 501 kts 140°
2026-05-04 15:52 35.01290 29.70319 34941 ft 502 kts 141°
2026-05-04 15:53 34.96200 29.76158 34945 ft 503 kts 141°
2026-05-04 15:53 34.91131 29.82058 34941 ft 504 kts 140°
2026-05-04 15:54 34.86110 29.87957 34939 ft 505 kts 140°
2026-05-04 15:54 34.81022 29.93907 34937 ft 506 kts 141°
2026-05-04 15:55 34.75753 29.99568 34934 ft 500 kts 151°
2026-05-04 15:55 34.69713 30.03525 34947 ft 491 kts 162°
2026-05-04 15:56 34.63616 30.07080 34956 ft 491 kts 161°
2026-05-04 15:56 34.57454 30.10691 34960 ft 492 kts 162°
2026-05-04 15:57 34.51284 30.14284 34964 ft 492 kts 162°
2026-05-04 15:57 34.45098 30.17880 34975 ft 492 kts 162°
2026-05-04 15:58 34.38958 30.21451 34979 ft 492 kts 162°
2026-05-04 15:58 34.32775 30.25039 34981 ft 492 kts 162°
2026-05-04 15:59 34.26594 30.28614 34981 ft 492 kts 162°
2026-05-04 15:59 34.20407 30.32180 34982 ft 492 kts 162°
2026-05-04 16:00 34.14219 30.35751 34982 ft 492 kts 162°
2026-05-04 16:00 34.08046 30.39308 34982 ft 492 kts 162°
2026-05-04 16:01 34.01889 30.42855 34983 ft 492 kts 162°
2026-05-04 16:01 33.95688 30.46406 34995 ft 492 kts 163°
2026-05-04 16:02 33.89509 30.49950 35008 ft 492 kts 163°
2026-05-04 16:03 33.80261 30.55228 35007 ft 491 kts 163°
2026-05-04 16:03 33.74088 30.58754 34999 ft 490 kts 163°
2026-05-04 16:04 33.67924 30.62273 34997 ft 490 kts 163°
2026-05-04 16:04 33.58689 30.67519 35012 ft 489 kts 163°
2026-05-04 16:05 33.52527 30.71010 35007 ft 488 kts 163°
2026-05-04 16:06 33.43324 30.76234 35014 ft 487 kts 164°
2026-05-04 16:07 33.31103 30.83131 35016 ft 486 kts 164°
2026-05-04 16:08 33.18870 30.90019 35018 ft 485 kts 164°
2026-05-04 16:08 33.09672 30.94697 35022 ft 469 kts 175°
2026-05-04 16:09 33.03360 30.95751 35029 ft 454 kts 185°
2026-05-04 16:10 32.90774 30.97143 35040 ft 453 kts 185°
2026-05-04 16:11 32.78253 30.98554 35045 ft 453 kts 185°
2026-05-04 16:12 32.59476 31.00653 35057 ft 451 kts 185°
2026-05-04 16:13 32.46983 31.02036 35067 ft 451 kts 185°
2026-05-04 16:14 32.34490 31.03418 35071 ft 450 kts 185°
2026-05-04 16:16 32.18939 31.05133 35076 ft 449 kts 185°
2026-05-04 16:17 32.03434 31.06832 35068 ft 453 kts 185°
2026-05-04 16:18 31.90714 31.08199 35076 ft 462 kts 185°
2026-05-04 16:19 31.74725 31.09915 35085 ft 462 kts 185°
2026-05-04 16:20 31.58688 31.11647 35096 ft 462 kts 185°